Weather History for Clemson, SC

Change the Weather History Date:

Friday, January 25, 2002

  Actual Average Record
Temperature  
Mean Temperature 47 °F -  
Max Temperature 55 °F 51 °F 74 °F (1943)
Min Temperature 37 °F 30 °F 12 °F (1940)
Degree Days  
Heating Degree Days 18    
Moisture  
Dew Point 39 °F    
Average Humidity 69    
Maximum Humidity 100    
Minimum Humidity 32    
Precipitation  
Precipitation 0.11 in - - ()
Sea Level Pressure  
Sea Level Pressure 30.10 in    
Wind  
Wind Speed 6 mph (North)    
Max Wind Speed 12 mph    
Max Gust Speed 16 mph    
Visibility 10 miles    
Events Rain    
Averages and records for this station are not official NWS values.
T = Trace of Precipitation, MM = Missing Value Source: NWS Daily Summary

Daily Weather History Graph

Daily Weather History Graph

Search for Another Location

Airport:

Trip Planner

Search our weather history database for the weather conditions in past years. The results will help you decide how hot, cold, wet, or windy it might be!

Date:

Astronomy

Jan. 25, 2002 Rise Set
Actual Time 7:34 AM EST 5:53 PM EST
Civil Twilight 7:07 AM EST 6:20 PM EST
Nautical Twilight 6:36 AM EST 6:51 PM EST
Astronomical Twilight 6:07 AM EST 7:21 PM EST
Moon 2:37 PM EST (1/25) 4:27 AM EST (1/25)
Length of Visible Light 11h 13m
Length of Day
10h 19m
Waxing Gibbous, 86% of the Moon is Illuminated
Jan 25
Waxing Gibbous
Jan 28
Full
Feb 4
Last Quarter
Feb 12
New
Feb 20
First Quarter

Hourly Weather History & Observations

Time (EST) Temp. Windchill Dew Point Humidity Pressure Visibility Wind Dir Wind Speed Gust Speed Precip Events Conditions
12:54 AM 54.0 °F - 54.0 °F 100% 29.91 in 9.0 mi South 3.5 mph - 0.04 in Rain Light Rain
1:54 AM 54.0 °F - 54.0 °F 100% 29.88 in 9.0 mi SSW 4.6 mph - 0.03 in Rain Light Rain
2:05 AM 53.6 °F - 53.6 °F 100% 29.88 in 8.0 mi SSW 4.6 mph - 0.00 in Rain Light Rain
2:54 AM 54.0 °F - 54.0 °F 100% 29.92 in 5.0 mi WSW 11.5 mph - 0.01 in   Overcast
3:22 AM 53.6 °F - 53.6 °F 100% 29.93 in 6.0 mi SW 9.2 mph - 0.02 in Rain Light Rain
3:54 AM 55.0 °F - 54.0 °F 96% 29.92 in 10.0 mi WSW 11.5 mph - 0.02 in Rain Light Rain
4:11 AM 53.6 °F - 53.6 °F 100% 29.93 in 10.0 mi WSW 11.5 mph - 0.01 in Rain Light Rain
4:54 AM 54.0 °F - 52.0 °F 93% 29.94 in 10.0 mi West 10.4 mph - 0.01 in   Scattered Clouds
5:54 AM 54.0 °F - 50.0 °F 86% 29.96 in 10.0 mi NNW 6.9 mph - N/A   Scattered Clouds
6:54 AM 53.1 °F - 48.0 °F 83% 29.99 in 10.0 mi North 4.6 mph - 0.00 in   Clear
7:54 AM 52.0 °F - 46.9 °F 83% 30.05 in 10.0 mi NE 4.6 mph - N/A   Clear
8:54 AM 50.0 °F - 42.1 °F 74% 30.09 in 10.0 mi ENE 6.9 mph - N/A   Clear
9:54 AM 48.9 °F - 37.9 °F 66% 30.13 in 10.0 mi NE 9.2 mph - N/A   Clear
10:54 AM 48.9 °F - 34.0 °F 56% 30.15 in 10.0 mi NE 8.1 mph - N/A   Clear
11:54 AM 50.0 °F - 27.0 °F 41% 30.16 in 10.0 mi NE 8.1 mph 16.1 mph N/A   Clear
12:54 PM 51.1 °F - 25.0 °F 36% 30.16 in 10.0 mi ENE 9.2 mph - N/A   Clear
1:54 PM 53.1 °F - 26.1 °F 35% 30.16 in 10.0 mi NE 5.8 mph - N/A   Clear
2:54 PM 53.1 °F - 27.0 °F 37% 30.16 in 10.0 mi Variable 6.9 mph - N/A   Clear
3:54 PM 53.1 °F - 25.0 °F 34% 30.19 in 10.0 mi Variable 3.5 mph - N/A   Clear
4:54 PM 53.1 °F - 24.1 °F 32% 30.21 in 10.0 mi Variable 4.6 mph - N/A   Clear
5:54 PM 48.9 °F - 30.0 °F 48% 30.23 in 10.0 mi Calm Calm - N/A   Clear
6:54 PM 46.9 °F - 28.0 °F 48% 30.26 in 10.0 mi SE 3.5 mph - N/A   Clear
7:54 PM 45.0 °F - 27.0 °F 49% 30.28 in 10.0 mi Calm Calm - N/A   Clear
8:54 PM 44.1 °F - 30.9 °F 60% 30.30 in 10.0 mi Calm Calm - N/A   Clear
9:54 PM 39.9 °F 37.8 °F 30.9 °F 70% 30.32 in 10.0 mi North 3.5 mph - N/A   Clear
10:54 PM 39.9 °F 35.8 °F 28.0 °F 63% 30.33 in 10.0 mi NNW 5.8 mph - N/A   Clear
11:54 PM 37.9 °F 32.7 °F 28.0 °F 68% 30.33 in 10.0 mi NNW 6.9 mph - N/A   Clear